sat.trackr.live / text

‹ back to catalog

NINGXIA-1 4

NORAD 44782 · 2019-076D

PAYLOAD ACTIVE UNKNOWN

§ Identity

Operator
Country
PRC
Launch date
2019-11-13
Launch site
TAISC
Launch vehicle
Mass (kg)
RCS (m²)

External: N2YO · Heavens-Above · Gunter

§ Orbital elements

Epoch: 2026-09-15T22:01:04.091808Z

Period
102.71 min
Inclination
45.0072°
Eccentricity
0.0012705
Mean motion
14.01996809 rev/d
Perigee alt
877.7 km
Apogee alt
896.1 km
Semi-major
7,265.0 km
B*
5.2516e-6
RAAN
134.3707°
Arg perigee
194.3445°
Mean anomaly
165.7030°
Rev number
35,055

§ Raw data

NINGXIA-1 41 44782U 19076D   26258.91740847 -.00000122  00000+0  52516-5 0  99902 44782  45.0072 134.3707 0012705 194.3445 165.7030 14.01996809350552

JSON: /api/v1/satellites/44782 · /tle

For live sub-satellite position, see the globe view (requires WebGL).

§ Visibility from observer

Set your observer location to see the next 7 days of passes ≥ 10°. The values pass through the URL so the page stays shareable.

No JS? Fill the form by hand. The geolocation button needs JavaScript.